Location: Roanoke
(37.2710°N, 79.9420°W)
Time: 05:50:29
(UTC-04:00)

Cosmos 1441 Rocket - Visible Passes

Search period start: 01 August 2014 00:00
Search period end: 11 August 2014 00:00
Orbit: 510 x 557 km, 81.1° (Epoch: 30 July)

Date Brightness Start Highest point End Pass type
(mag) Time Alt. Az. Time Alt. Az. Time Alt. Az.
01 Aug 6.3 01:00:33 13° NNE 01:00:33 13° NNE 01:01:02 10° NNE visible
02 Aug 6.3 00:51:12 12° NNE 00:51:12 12° NNE 00:51:35 10° NNE visible
03 Aug 6.4 00:41:49 12° NNE 00:41:49 12° NNE 00:42:07 10° NNE visible
04 Aug 6.4 00:32:26 11° NNE 00:32:26 11° NNE 00:32:38 10° NNE visible
05 Aug 6.4 00:23:01 11° NNE 00:23:01 11° NNE 00:23:10 10° NNE visible
06 Aug 6.4 00:13:36 10° NNE 00:13:36 10° NNE 00:13:41 10° NNE visible
07 Aug 6.4 00:04:10 10° NNE 00:04:10 10° NNE 00:04:12 10° NNE visible
